User: anonymous   Login
Location: Caltech
(34.1382°N, 118.1253°W)
Time: 16:20:32
(UTC-07:00)
Language:

OAO 1 Rocket - Orbit

View from above orbital plane
View from above orbital plane
View from above satellite
View from above satellite

Ground track
Ground track

The orbit data is extracted from the following two-line orbital elements,

1 02144U 66031B   15144.23286235  .00000189  00000-0  62074-4 0  9994
2 02144 035.0430 061.5408 0009115 270.7383 089.2262 14.42421055579039
Epoch (UTC): 24 May 2015 05:35:19
Eccentricity: 0.0009115
inclination: 35.0430°
perigee height: 744 km
apogee height: 757 km
right ascension of ascending node: 61.5408°
argument of perigee: 270.7383°
revolutions per day: 14.42421055
mean anomaly at epoch: 89.2262°
orbit number at epoch: 57903

The dashed part of the orbit path shows where the satellite is in the earth's shadow,  

DLR